User: anonymous   Login
Location: Brabourne
(51.1333°N, 1.0000°E)
Time: 07:47:48
(UTC+00:00)
Language:

Cosmos 1271 Rocket - Orbit

View from above orbital plane
View from above orbital plane
View from above satellite
View from above satellite

Ground track
Ground track

The orbit data is extracted from the following two-line orbital elements,

1 12465U 81046B   21267.89581914  .00001417  00000-0  73217-4 0  9997
2 12465  81.2445  29.9358 0034531 140.4835 219.8921 15.15088771190590
Epoch (UTC): 24 September 2021 21:29:58
Eccentricity: 0.0034531
inclination: 81.2445°
perigee height: 497 km
apogee height: 544 km
right ascension of ascending node: 29.9358°
argument of perigee: 140.4835°
revolutions per day: 15.15088771
mean anomaly at epoch: 219.8921°
orbit number at epoch: 19059

The dashed part of the orbit path shows where the satellite is in the earth's shadow,  

DLR